This demonstration page uses our WeatherBlox Daily Observations layout. Learn more.

Left ArrowRight Arrow

Hourly Observations for March 24, 2016

Temp ( °F °C ) Dew Point ( °F °C ) Humidity (%) Winds ( mph kmh ) Pressure ( in mb ) Visibility ( mi km ) Precip ( " mm )
12:47 am 00:47 Windy with Snow Likely 34 1.1 32 0 92 92 N 22 35 29.74 1007 2 3 0.00 0.03
12:54 am 00:54 Windy with Snow Likely 34 1.1 32 0 92 92 N 23 37 29.70 1006 2 3 0.00 0.03
1:54 am 01:54 Windy with Snow Likely 32 0 30 -1.1 92 92 N 30 48 29.71 1006 3 4 0.00 0.03
2:11 am 02:11 Cloudy with Light Wintry Mix 31 -0.6 29 -1.7 92 92 N 31 50 29.77 1008 3 5 0.00 0.03
2:14 am 02:14 Cloudy with Light Freezing Rain 30 -1 28 -2 93 93 N 35 56 29.77 1008 3 5 0.00 0.00
2:45 am 02:45 Cloudy with Mist and Fog 30 -1 28 -2 93 93 N 33 54 29.80 1009 6 10 0.00 0.00
2:54 am 02:54 Cloudy with Light Wintry Mix 31 -0.6 28 -2.2 89 89 N 30 48 29.76 1008 6 10 0.00 0.03
3:39 am 03:39 Cloudy 30 -1 27 -3 86 86 N 35 56 29.80 1009 9 14 0.00 0.00
3:54 am 03:54 Cloudy 31 -0.6 27 -2.8 85 85 N 31 50 29.77 1008 8 13 0.00 0.03
4:42 am 04:42 Cloudy 30 -1 27 -3 86 86 N 33 54 29.80 1009 9 14 0.00 0.00
4:54 am 04:54 Cloudy 31 -0.6 27 -2.8 85 85 N 33 54 29.78 1009 9 14 0.00 0.03
5:30 am 05:30 Windy with Snow Likely 30 -1 27 -3 86 86 N 29 46 29.83 1010 8 13 0.00 0.00
5:40 am 05:40 Windy with Snow Likely 30 -1 27 -3 86 86 N 28 44 29.85 1011 9 14 0.00 0.00
5:54 am 05:54 Cloudy 30 -1.1 26 -3.3 85 85 N 28 44 29.82 1010 10 16 0.00 0.03
6:54 am 06:54 Cloudy 31 -0.6 25 -3.9 79 79 N 26 43 29.85 1011 10 16 0.00 0.00
7:27 am 07:27 Cloudy 31 -0.6 24 -4.4 76 76 N 28 44 29.91 1013 10 16 0.00 0.00
7:54 am 07:54 Cloudy 31 -0.6 24 -4.4 76 76 N 25 41 29.90 1012 10 16 0.00 0.00
8:31 am 08:31 Mostly Cloudy 31 -0.6 24 -4.4 76 76 N 25 41 29.94 1014 10 16 0.00 0.00
8:54 am 08:54 Sunny 32 0 24 -4.4 73 73 N 28 44 29.91 1013 10 16 0.00 0.00
9:54 am 09:54 Sunny 34 1.1 24 -4.4 67 67 N 25 41 29.94 1014 10 16 0.00 0.00
10:54 am 10:54 Mostly Sunny 37 2.8 25 -3.9 62 62 N 22 35 29.97 1015 10 16 0.00 0.00
11:54 am 11:54 Sunny 40 4.4 24 -4.4 53 53 N 25 41 29.98 1015 10 16 0.00 0.00
12:54 pm 12:54 Sunny 42 5.6 21 -6.1 43 43 N 20 31 29.98 1015 10 16 0.00 0.00
1:54 pm 13:54 Sunny 45 7.2 21 -6.1 39 39 N 21 33 29.98 1015 10 16 0.00 0.00
2:54 pm 14:54 Sunny 46 7.8 19 -7.2 34 34 NNW 17 28 30.00 1016 10 16 0.00 0.00
3:54 pm 15:54 Sunny 47 8.3 18 -7.8 31 31 NNW 17 28 30.00 1016 10 16 0.00 0.00
4:54 pm 16:54 Sunny 47 8.3 16 -8.9 29 29 NNW 16 26 29.99 1016 10 16 0.00 0.00
5:54 pm 17:54 Sunny 46 7.8 17 -8.3 31 31 N 13 20 30.00 1016 10 16 0.00 0.00
6:54 pm 18:54 Sunny 44 6.7 17 -8.3 34 34 N 8 13 30.01 1016 10 16 0.00 0.00
7:54 pm 19:54 Clear 36 2.2 17 -8.3 46 46 N 8 13 30.00 1016 10 16 0.00 0.00
8:54 pm 20:54 Clear 34 1.1 16 -8.9 48 48 NNW 5 7 30.02 1017 10 16 0.00 0.00
9:54 pm 21:54 Clear 29 -1.7 17 -8.3 61 61 NNW 3 6 30.04 1017 10 16 0.00 0.00
10:54 pm 22:54 Clear 31 -0.6 17 -8.3 56 56 Calm 30.03 1017 10 16 0.00 0.00
11:54 pm 23:54 Clear 30 -1.1 19 -7.2 64 64 Calm 30.02 1017 10 16 0.00 0.00

Powered by AerisWeather